This is the latest recevied weather packets stored in our database for station/object N8WJW. If no packets are shown the sender has not sent any weather packets the latest 10 day(s).
| Time | Temp. | Humidity | Pressure | Rain* | Wind** | Luminosity | Snow |
|---|---|---|---|---|---|---|---|
| 1777645278 | 5.56° C | 98% | 1013.1 hPa | 0 mm | - | 64 W/m² | - |
| 1777644974 | 5.56° C | 98% | 1013.4 hPa | 0 mm | - | 52 W/m² | - |
| 1777644672 | 5.56° C | 98% | 1013.1 hPa | 0 mm | - | 65 W/m² | - |
| 1777644367 | 5.56° C | 98% | 1013.1 hPa | 0 mm | - | 70 W/m² | - |
| 1777644064 | 5.56° C | 98% | 1013.2 hPa | 0 mm | - | 112 W/m² | - |
| 1777643760 | 5.56° C | 98% | 1013.2 hPa | 0 mm | - | 39 W/m² | - |
| 1777643458 | 5.56° C | 98% | 1013.4 hPa | 0 mm | - | 61 W/m² | - |
| 1777643155 | 5.56° C | 98% | 1013.2 hPa | 0 mm | - | 97 W/m² | - |
| 1777642851 | 5.56° C | 98% | 1013.2 hPa | 0 mm | - | 47 W/m² | - |
| 1777642548 | 5.56° C | 98% | 1013.6 hPa | 0 mm | - | 37 W/m² | - |
| 1777642244 | 5.56° C | 98% | 1013.3 hPa | 0 mm | - | 63 W/m² | - |
| 1777641942 | 5.56° C | 98% | 1013.3 hPa | 0 mm | - | 70 W/m² | - |
| 1777641638 | 5.56° C | 98% | 1013.4 hPa | 0 mm | - | 29 W/m² | - |
| 1777641332 | 5.56° C | 97% | 1013.7 hPa | 0 mm | - | 41 W/m² | - |
| 1777641028 | 5.56° C | 98% | 1013.4 hPa | 0 mm | - | 60 W/m² | - |
| 1777640725 | 5.56° C | 98% | 1013.5 hPa | 0 mm | - | 45 W/m² | - |
| 1777640422 | 5.56° C | 98% | 1013.5 hPa | 0 mm | - | 52 W/m² | - |
| 1777640119 | 5.56° C | 98% | 1013.3 hPa | 0 mm | - | 26 W/m² | - |
| 1777639815 | 5.56° C | 97% | 1013.5 hPa | 0 mm | - | 36 W/m² | - |
| 1777639513 | 5° C | 98% | 1013.5 hPa | 0 mm | - | 37 W/m² | - |
| 1777639209 | 5° C | 97% | 1013.7 hPa | 0 mm | - | 23 W/m² | - |
| 1777638906 | 5° C | 97% | 1013.7 hPa | 0 mm | - | 25 W/m² | - |
| 1777638601 | 5° C | 97% | 1013.4 hPa | 0 mm | - | 31 W/m² | - |
| 1777638298 | 5° C | 97% | 1013.5 hPa | 0 mm | - | 25 W/m² | - |
| 1777637994 | 5° C | 97% | 1013.3 hPa | 0 mm | - | 40 W/m² | - |
* Rain latest hour (hover to see other rain measurements)
** Current wind speed in m/s (hover to see current wind gust speed)